sat.trackr.live / text

‹ back to catalog

STARLINK-11419 [DTC]

NORAD 62883 · 2025-024E

PAYLOAD ACTIVE UNKNOWN

§ Identity

Operator
Country
US
Launch date
2025-02-04
Launch site
AFETR
Launch vehicle
Mass (kg)
RCS (m²)

Purposes: comms

External: N2YO · Heavens-Above · Gunter

§ Orbital elements

Epoch: 2026-05-24T12:36:24.939360Z

Period
91.67 min
Inclination
43.0005°
Eccentricity
0.0000682
Mean motion
15.70888529 rev/d
Perigee alt
355.9 km
Apogee alt
356.8 km
Semi-major
6,734.5 km
B*
1.5183e-3
RAAN
84.3373°
Arg perigee
277.6476°
Mean anomaly
82.4314°
Rev number
7,539

§ Raw data

STARLINK-11419 [DTC]1 62883U 25024E   26144.52528865  .00199530  00000+0  15183-2 0  99942 62883  43.0005  84.3373 0000682 277.6476  82.4314 15.70888529 75393

JSON: /api/v1/satellites/62883 · /tle

For live sub-satellite position, see the globe view (requires WebGL).

§ Visibility from observer

Set your observer location to see the next 7 days of passes ≥ 10°. The values pass through the URL so the page stays shareable.

No JS? Fill the form by hand. The geolocation button needs JavaScript.